FW9002 Weather Reports


time (UTC)temp
F
wind
direction
speed
knots
gust
knots
rain 1hr
in
rain 24hr
in
rain mn
in
humidity
%
barometer
mb
20260507104415 58 108 0.0 0.0 0.00 0.00 0.00 41 1013.6
20260507103910 58 106 0.9 0.9 0.00 0.00 0.00 41 1013.5
20260507103407 58 129 0.9 0.9 0.00 0.00 0.00 41 1013.6
20260507102903 56 122 0.9 0.9 0.00 0.00 0.00 45 1013.6
20260507102400 55 98 0.0 0.0 0.00 0.00 0.00 50 1013.5
20260507101856 54 93 0.0 0.0 0.00 0.00 0.00 55 1013.8
20260507101356 54 93 0.0 0.0 0.00 0.00 0.00 55 1013.4
20260507100854 55 93 0.0 0.0 0.00 0.00 0.00 55 1014.0
20260507100351 55 93 0.0 0.0 0.00 0.00 0.00 54 1013.8
20260507095849 55 93 0.0 0.0 0.00 0.00 0.00 53 1013.6
20260507095345 55 93 0.0 0.0 0.00 0.00 0.00 53 1014.0
20260507094843 56 93 0.0 0.0 0.00 0.00 0.00 52 1014.0
20260507094339 56 93 0.9 0.0 0.00 0.00 0.00 51 1013.8
20260507093837 56 84 0.0 0.0 0.00 0.00 0.00 52 1013.8
20260507093335 56 84 0.0 0.0 0.00 0.00 0.00 51 1013.8
20260507092833 56 84 0.0 0.0 0.00 0.00 0.00 51 1013.9
20260507092329 57 84 0.0 0.0 0.00 0.00 0.00 51 1014.0
20260507091825 57 84 0.0 0.0 0.00 0.00 0.00 49 1014.0
20260507091322 57 84 0.0 0.0 0.00 0.00 0.00 50 1014.0
20260507090817 57 84 0.0 0.0 0.00 0.00 0.00 51 1014.1
20260507090314 57 84 0.0 0.0 0.00 0.00 0.00 48 1014.0
20260507085811 57 84 0.0 0.0 0.00 0.00 0.00 47 1014.1
20260507085308 58 84 0.0 0.0 0.00 0.00 0.00 46 1014.3
20260507084805 57 85 0.0 0.0 0.00 0.00 0.00 46 1014.2
20260507084301 57 86 0.0 0.0 0.00 0.00 0.00 49 1014.1
20260507083759 57 87 0.0 0.0 0.00 0.00 0.00 51 1013.9
20260507083255 57 87 0.0 0.0 0.00 0.00 0.00 51 1014.3
20260507082751 57 87 0.0 0.0 0.00 0.00 0.00 51 1014.0
20260507082247 57 87 0.0 0.0 0.00 0.00 0.00 51 1014.0
20260507081744 57 87 0.0 0.0 0.00 0.00 0.00 52 1014.1
20260507081240 57 87 0.0 0.0 0.00 0.00 0.00 51 1014.1
20260507080737 58 87 0.0 0.0 0.00 0.00 0.00 50 1014.1
20260507080233 58 87 0.0 0.0 0.00 0.00 0.00 51 1014.2
20260507075729 58 87 0.0 0.0 0.00 0.00 0.00 49 1014.2
20260507075225 58 87 0.0 0.0 0.00 0.00 0.00 50 1014.0
20260507074721 59 87 0.0 0.0 0.00 0.00 0.00 50 1014.0
20260507074220 59 87 0.0 0.0 0.00 0.00 0.00 49 1014.1
20260507073716 59 87 0.0 0.0 0.00 0.00 0.00 49 1014.0
20260507073213 59 87 0.0 0.0 0.00 0.00 0.00 49 1013.9
20260507072711 59 87 0.0 0.0 0.00 0.00 0.00 50 1014.0
20260507072208 59 87 0.0 0.0 0.00 0.00 0.00 49 1014.0
20260507071705 59 87 0.0 0.0 0.00 0.00 0.00 49 1014.1
20260507071201 60 87 0.0 0.0 0.00 0.00 0.00 47 1014.0
20260507070659 60 87 0.0 0.0 0.00 0.00 0.00 47 1014.1
20260507070155 60 87 0.0 0.0 0.00 0.00 0.00 47 1014.1
20260507065651 60 87 0.0 0.0 0.00 0.00 0.00 46 1014.2
20260507065149 60 87 0.0 0.0 0.00 0.00 0.00 45 1014.2
20260507064646 60 86 0.0 0.0 0.00 0.00 0.00 45 1014.2
20260507064144 60 86 0.9 0.9 0.00 0.00 0.00 46 1014.1
20260507063642 60 56 0.0 0.0 0.00 0.00 0.00 45 1014.0
20260507063138 60 345 0.0 0.0 0.00 0.00 0.00 45 1013.6
20260507062635 60 345 0.0 0.0 0.00 0.00 0.00 45 1014.1
20260507062133 61 345 0.0 0.0 0.00 0.00 0.00 44 1014.1
20260507061631 61 345 0.0 0.0 0.00 0.00 0.00 42 1014.0
20260507061128 62 345 0.0 0.0 0.00 0.00 0.00 42 1013.9
20260507060626 62 345 0.0 0.0 0.00 0.00 0.00 42 1014.0
20260507060122 61 345 0.0 0.0 0.00 0.00 0.00 42 1013.9
20260507055618 60 345 0.9 0.9 0.00 0.00 0.00 42 1013.8
20260507055114 60 345 0.0 0.0 0.00 0.00 0.00 43 1013.6
20260507054610 60 345 0.0 0.0 0.00 0.00 0.00 43 1013.9
20260507054107 60 345 0.0 0.0 0.00 0.00 0.00 42 1014.0
20260507053605 60 345 0.0 0.0 0.00 0.00 0.00 40 1013.8
20260507053104 60 345 0.0 0.0 0.00 0.00 0.00 42 1013.6
20260507052601 60 345 0.0 0.0 0.00 0.00 0.00 38 1013.8
20260507052058 61 345 0.0 0.0 0.00 0.00 0.00 40 1013.6
20260507051555 61 345 0.0 0.0 0.00 0.00 0.00 37 1013.6
20260507051052 62 345 0.0 0.0 0.00 0.00 0.00 36 1013.8
20260507050549 62 345 0.0 0.0 0.00 0.00 0.00 34 1013.6
20260507050045 64 345 0.0 0.0 0.00 0.00 0.00 34 1013.5
20260507045542 64 345 0.0 0.0 0.00 0.00 0.00 33 1013.2
20260507045039 65 345 0.0 0.0 0.00 0.00 0.00 32 1013.3
20260507044535 65 345 0.0 0.0 0.00 0.00 0.00 30 1013.6
20260507044033 66 345 0.0 0.0 0.00 0.00 0.00 30 1013.5
20260507043528 66 345 0.0 0.0 0.00 0.00 0.00 27 1013.3
20260507043026 67 345 0.0 0.0 0.00 0.00 0.00 27 1013.3
20260507042522 68 345 0.0 0.0 0.00 0.00 0.00 26 1013.3
20260507042017 68 345 0.0 0.0 0.00 0.00 0.00 25 1013.4
20260507041515 69 345 0.9 0.0 0.00 0.00 0.00 24 1013.1
20260507041011 70 317 0.0 0.0 0.00 0.00 0.00 24 1013.3
20260507040507 70 315 0.9 0.0 0.00 0.00 0.00 23 1013.1
20260507040004 70 299 0.0 0.0 0.00 0.00 0.00 23 1013.2
20260507035500 71 305 0.9 0.9 0.00 0.00 0.00 22 1013.0
20260507034956 71 280 1.7 2.6 0.00 0.00 0.00 22 1013.1
20260507034453 71 339 1.7 1.7 0.00 0.00 0.00 22 1013.0
20260507033951 71 313 0.0 0.0 0.00 0.00 0.00 22 1012.8
20260507033449 71 303 2.6 5.2 0.00 0.00 0.00 21 1012.8
20260507032946 71 318 0.0 0.9 0.00 0.00 0.00 21 1012.8
20260507032443 72 271 0.9 0.9 0.00 0.00 0.00 21 1012.7
20260507031939 72 318 0.0 0.0 0.00 0.00 0.00 21 1012.8
20260507031435 72 288 1.7 1.7 0.00 0.00 0.00 20 1012.8
20260507030932 72 317 1.7 1.7 0.00 0.00 0.00 21 1012.9
20260507030430 72 302 0.9 0.9 0.00 0.00 0.00 21 1012.7
20260507025927 72 301 0.9 1.7 0.00 0.00 0.00 21 1012.7
20260507025424 73 307 1.7 1.7 0.00 0.00 0.00 20 1012.5
20260507024922 73 291 2.6 2.6 0.00 0.00 0.00 20 1012.2
20260507024419 73 298 0.0 0.0 0.00 0.00 0.00 20 1012.4
20260507023914 73 295 0.9 0.9 0.00 0.00 0.00 20 1012.4
20260507023412 73 328 0.9 0.9 0.00 0.00 0.00 20 1012.1
20260507022909 74 302 3.5 5.2 0.00 0.00 0.00 19 1012.5
20260507022405 74 260 1.7 2.6 0.00 0.00 0.00 19 1012.5
20260507021901 74 313 2.6 2.6 0.00 0.00 0.00 20 1012.2
20260507021356 74 298 1.7 1.7 0.00 0.00 0.00 20 1012.1
20260507020855 75 301 0.9 0.9 0.00 0.00 0.00 20 1012.4
20260507020351 75 301 2.6 4.3 0.00 0.00 0.00 19 1012.4
20260507015848 75 309 1.7 1.7 0.00 0.00 0.00 20 1012.0
20260507015346 76 292 1.7 1.7 0.00 0.00 0.00 20 1012.1
20260507014843 77 280 1.7 1.7 0.00 0.00 0.00 19 1012.1
20260507014339 77 300 4.3 6.1 0.00 0.00 0.00 19 1011.9
20260507013836 78 321 1.7 1.7 0.00 0.00 0.00 19 1012.1
20260507013333 78 316 1.7 1.7 0.00 0.00 0.00 19 1012.5
20260507012831 79 341 0.0 0.0 0.00 0.00 0.00 19 1012.1
20260507012326 79 319 0.9 0.9 0.00 0.00 0.00 19 1012.0
20260507011823 79 283 1.7 1.7 0.00 0.00 0.00 19 1012.1
20260507011320 79 308 2.6 2.6 0.00 0.00 0.00 19 1011.9
20260507010820 80 302 0.9 1.7 0.00 0.00 0.00 19 1012.0
20260507010315 80 23 0.9 0.9 0.00 0.00 0.00 19 1012.1
20260507005813 80 8 0.9 0.9 0.00 0.00 0.00 19 1012.0
20260507005310 80 315 0.9 0.9 0.00 0.00 0.00 19 1012.1
20260507004807 80 16 2.6 4.3 0.00 0.00 0.00 19 1012.0
20260507004304 80 303 2.6 4.3 0.00 0.00 0.00 18 1012.0
20260507003801 81 309 2.6 2.6 0.00 0.00 0.00 19 1012.0
20260507003256 80 303 2.6 4.3 0.00 0.00 0.00 19 1012.0
20260507002752 80 352 2.6 4.3 0.00 0.00 0.00 18 1012.0
20260507002248 80 26 2.6 2.6 0.00 0.00 0.00 19 1011.8
20260507001745 81 10 1.7 1.7 0.00 0.00 0.00 18 1012.1
20260507001242 81 2 2.6 2.6 0.00 0.00 0.00 18 1011.6
20260507000738 81 286 2.6 2.6 0.00 0.00 0.00 18 1012.1
20260507000234 81 323 1.7 1.7 0.00 0.00 0.00 19 1011.9
20260506235731 81 352 4.3 7.0 0.00 0.00 0.00 18 1012.0
20260506235226 81 292 1.7 4.3 0.00 0.00 0.00 19 1012.1
20260506234724 82 355 2.6 2.6 0.00 0.00 0.00 18 1011.9
20260506234221 82 22 0.9 0.9 0.00 0.00 0.00 18 1011.9
20260506233719 81 354 3.5 5.2 0.00 0.00 0.00 18 1012.2
20260506233215 80 3 4.3 6.1 0.00 0.00 0.00 18 1011.9
20260506232711 81 311 1.7 1.7 0.00 0.00 0.00 19 1012.2
20260506232206 81 2 1.7 2.6 0.00 0.00 0.00 19 1012.1
20260506231704 81 281 0.9 0.9 0.00 0.00 0.00 18 1012.2
20260506231203 81 287 0.9 0.9 0.00 0.00 0.00 20 1012.1
20260506230658 81 318 3.5 4.3 0.00 0.00 0.00 18 1012.2
20260506230155 81 298 2.6 4.3 0.00 0.00 0.00 18 1012.2
20260506225652 81 258 3.5 5.2 0.00 0.00 0.00 19 1012.4
20260506225149 81 253 1.7 1.7 0.00 0.00 0.00 19 1012.2
20260506224645 82 286 2.6 2.6 0.00 0.00 0.00 19 1012.2
20260506224142 80 277 1.7 2.6 0.00 0.00 0.00 21 1012.5
20260506223639 80 303 2.6 1.7 0.00 0.00 0.00 20 1012.5
20260506223134 80 266 2.6 4.3 0.00 0.00 0.00 21 1012.2
20260506222631 80 288 4.3 5.2 0.00 0.00 0.00 21 1012.5
20260506222128 80 302 2.6 2.6 0.00 0.00 0.00 20 1012.5
20260506221626 81 237 0.9 0.9 0.00 0.00 0.00 20 1012.6
20260506221123 82 299 3.5 5.2 0.00 0.00 0.00 20 1012.8
20260506220620 82 307 0.9 1.7 0.00 0.00 0.00 20 1012.6
20260506220115 82 214 2.6 2.6 0.00 0.00 0.00 19 1012.8
20260506215612 81 213 0.9 0.9 0.00 0.00 0.00 20 1012.8
20260506215107 82 319 1.7 1.7 0.00 0.00 0.00 20 1012.9
20260506214605 81 256 3.5 4.3 0.00 0.00 0.00 20 1012.7
20260506214102 81 355 0.9 0.9 0.00 0.00 0.00 20 1013.0
20260506213600 79 18 0.0 0.0 0.00 0.00 0.00 21 1013.3
20260506213057 79 352 1.7 2.6 0.00 0.00 0.00 21 1013.2
20260506212554 79 301 1.7 1.7 0.00 0.00 0.00 22 1013.4
20260506212048 79 234 3.5 5.2 0.00 0.00 0.00 21 1013.2
20260506211545 79 250 6.1 7.0 0.00 0.00 0.00 21 1013.5
20260506211042 78 292 1.7 1.7 0.00 0.00 0.00 23 1013.4
20260506210538 80 236 3.5 4.3 0.00 0.00 0.00 22 1013.5
20260506210035 79 290 3.5 4.3 0.00 0.00 0.00 23 1013.5
20260506205532 78 105 0.9 1.7 0.00 0.00 0.00 22 1013.6
20260506205027 78 189 0.9 0.9 0.00 0.00 0.00 23 1013.5
20260506204525 78 336 1.7 1.7 0.00 0.00 0.00 23 1013.4
20260506204022 78 297 2.6 4.3 0.00 0.00 0.00 23 1013.6
20260506203520 78 287 2.6 2.6 0.00 0.00 0.00 24 1013.9
20260506203016 79 324 1.7 1.7 0.00 0.00 0.00 25 1013.8
20260506202514 78 275 3.5 5.2 0.00 0.00 0.00 24 1014.0
20260506202010 78 281 1.7 4.3 0.00 0.00 0.00 25 1014.0
20260506201508 77 273 0.9 0.9 0.00 0.00 0.00 25 1014.0
20260506201004 78 303 0.9 1.7 0.00 0.00 0.00 26 1014.0
20260506200500 77 258 1.7 1.7 0.00 0.00 0.00 25 1014.1
20260506195956 77 216 3.5 4.3 0.00 0.00 0.00 25 1014.1
20260506195455 77 293 2.6 2.6 0.00 0.00 0.00 26 1014.1
20260506194950 76 184 0.9 1.7 0.00 0.00 0.00 27 1014.3
20260506194448 76 327 0.9 0.9 0.00 0.00 0.00 27 1014.5
20260506193944 76 357 5.2 7.8 0.00 0.00 0.00 27 1014.5
20260506193442 76 306 3.5 2.6 0.00 0.00 0.00 28 1014.4
20260506192938 76 6 0.0 0.9 0.00 0.00 0.00 28 1014.5
20260506192436 76 270 0.9 0.9 0.00 0.00 0.00 27 1014.5
20260506191932 76 331 2.6 4.3 0.00 0.00 0.00 28 1014.8
20260506191429 76 307 3.5 5.2 0.00 0.00 0.00 28 1014.7
20260506190925 75 305 4.3 5.2 0.00 0.00 0.00 28 1014.9
20260506190422 75 228 0.9 0.9 0.00 0.00 0.00 29 1014.8
20260506185919 76 262 2.6 2.6 0.00 0.00 0.00 27 1014.9
20260506185416 75 6 2.6 2.6 0.00 0.00 0.00 28 1014.9
20260506184913 75 302 0.9 0.9 0.00 0.00 0.00 29 1015.2
20260506184410 74 339 1.7 1.7 0.00 0.00 0.00 30 1015.0
20260506183908 75 225 2.6 2.6 0.00 0.00 0.00 28 1014.8
20260506183402 76 250 1.7 1.7 0.00 0.00 0.00 26 1015.0
20260506182900 74 210 0.9 0.9 0.00 0.00 0.00 28 1015.2
20260506182357 73 122 3.5 4.3 0.00 0.00 0.00 28 1015.3
20260506181854 73 122 2.6 2.6 0.00 0.00 0.00 29 1015.4
20260506181352 73 263 0.9 1.7 0.00 0.00 0.00 30 1015.7
20260506180849 73 168 0.9 1.7 0.00 0.00 0.00 28 1015.4
20260506180345 73 5 2.6 2.6 0.00 0.00 0.00 30 1015.7
20260506175842 73 296 2.6 2.6 0.00 0.00 0.00 28 1015.4
20260506175338 74 304 1.7 1.7 0.00 0.00 0.00 27 1015.5
20260506174836 74 139 2.6 4.3 0.00 0.00 0.00 28 1015.3
20260506174333 72 105 0.0 0.9 0.00 0.00 0.00 30 1015.4
20260506173830 72 303 2.6 2.6 0.00 0.00 0.00 29 1015.7
20260506173327 72 312 3.5 5.2 0.00 0.00 0.00 31 1015.5
20260506172824 72 333 2.6 4.3 0.00 0.00 0.00 32 1015.6
20260506172321 70 85 0.9 0.9 0.00 0.00 0.00 34 1015.4
20260506171818 71 200 0.0 0.0 0.00 0.00 0.00 34 1015.5
20260506171315 71 235 0.9 0.9 0.00 0.00 0.00 34 1015.5
20260506170813 71 270 1.7 0.9 0.00 0.00 0.00 34 1015.3
20260506170308 71 30 1.7 1.7 0.00 0.00 0.00 36 1015.4
20260506165808 70 6 0.9 0.9 0.00 0.00 0.00 36 1015.5
20260506165306 70 0 0.9 0.9 0.00 0.00 0.00 37 1015.3
20260506164802 70 8 0.9 0.9 0.00 0.00 0.00 38 1015.6
20260506164258 70 7 0.9 1.7 0.00 0.00 0.00 38 1015.5
20260506163755 69 70 0.9 0.9 0.00 0.00 0.00 37 1015.3
20260506163250 69 297 2.6 4.3 0.00 0.00 0.00 37 1015.4
20260506162746 68 345 1.7 1.7 0.00 0.00 0.00 37 1015.5
20260506162244 68 7 2.6 1.7 0.00 0.00 0.00 38 1015.2
20260506161741 68 21 0.0 0.9 0.00 0.00 0.00 41 1015.5
20260506161239 69 307 2.6 2.6 0.00 0.00 0.00 39 1015.3
20260506160736 69 31 0.0 0.9 0.00 0.00 0.00 39 1015.4
20260506160232 68 357 0.9 0.9 0.00 0.00 0.00 41 1015.5
20260506155731 67 17 1.7 1.7 0.00 0.00 0.00 41 1015.4
20260506155227 67 10 0.0 0.0 0.00 0.00 0.00 40 1015.3
20260506153335 66 182 0.9 1.7 0.00 0.00 0.00 42 1015.5
20260506152832 64 250 0.0 0.0 0.00 0.00 0.00 44 1015.3
20260506152329 65 218 2.6 1.7 0.00 0.00 0.00 42 1015.3
20260506151828 67 129 2.6 2.6 0.00 0.00 0.00 41 1015.3
20260506151324 66 114 0.9 0.9 0.00 0.00 0.00 41 1015.4
20260506150821 66 103 0.0 0.0 0.00 0.00 0.00 43 1015.3
20260506150318 65 127 1.7 1.7 0.00 0.00 0.00 43 1015.3
20260506145815 65 101 0.9 0.9 0.00 0.00 0.00 43 1015.3
20260506145311 64 165 0.9 1.7 0.00 0.00 0.00 45 1015.2
20260506144809 63 159 0.0 0.0 0.00 0.00 0.00 46 1015.3
20260506144305 62 159 0.9 0.9 0.00 0.00 0.00 46 1015.4
20260506143803 62 177 0.9 0.9 0.00 0.00 0.00 46 1015.4
20260506143300 62 183 0.9 0.9 0.00 0.00 0.00 46 1015.4
20260506142759 62 184 2.6 1.7 0.00 0.00 0.00 47 1015.3
20260506142256 62 151 0.9 0.9 0.00 0.00 0.00 47 1015.5
20260506141754 62 189 1.7 0.9 0.00 0.00 0.00 47 1015.3
20260506141252 62 116 0.0 0.0 0.00 0.00 0.00 48 1015.2
20260506140750 63 115 0.9 0.9 0.00 0.00 0.00 48 1015.5
20260506140246 63 99 0.9 0.9 0.00 0.00 0.00 47 1015.4
20260506135743 62 91 0.0 0.0 0.00 0.00 0.00 53 1015.3
20260506135239 61 91 0.0 0.0 0.00 0.00 0.00 59 1014.9
20260506134736 59 91 0.0 0.0 0.00 0.00 0.00 60 1015.2
20260506134233 59 91 0.0 0.0 0.00 0.00 0.00 63 1015.2
20260506133730 58 89 0.0 0.0 0.00 0.00 0.00 63 1015.0
20260506133226 57 93 0.9 0.9 0.00 0.00 0.00 65 1014.9
20260506132723 57 92 0.0 0.0 0.00 0.00 0.00 67 1015.0
20260506132221 56 83 0.0 0.0 0.00 0.00 0.00 68 1015.2
20260506131719 55 83 0.0 0.0 0.00 0.00 0.00 70 1015.0
20260506131214 54 83 0.0 0.0 0.00 0.00 0.00 73 1014.9
20260506130711 52 83 0.0 0.0 0.00 0.00 0.00 76 1014.8
20260506130208 51 83 0.0 0.0 0.00 0.00 0.00 78 1015.0
20260506125707 51 83 0.0 0.0 0.00 0.00 0.00 79 1014.8
20260506125204 51 83 0.9 0.9 0.00 0.00 0.00 80 1014.6
20260506124702 51 82 0.0 0.0 0.00 0.00 0.00 80 1014.8
20260506124200 50 83 0.0 0.0 0.00 0.00 0.00 80 1014.6
20260506123657 50 83 0.0 0.0 0.00 0.00 0.00 80 1014.8
20260506123155 50 83 0.0 0.0 0.00 0.00 0.00 81 1014.7
20260506122652 50 83 0.0 0.0 0.00 0.00 0.00 81 1014.5
20260506122150 50 83 0.0 0.0 0.00 0.00 0.00 79 1014.4
20260506121647 51 83 0.0 0.0 0.00 0.00 0.00 78 1014.5
20260506121143 51 83 0.0 0.0 0.00 0.00 0.00 76 1014.5
20260506120641 51 83 0.0 0.0 0.00 0.00 0.00 77 1014.3
20260506120138 51 82 0.0 0.0 0.00 0.00 0.00 76 1014.5
20260506115637 52 83 0.0 0.0 0.00 0.00 0.00 75 1014.3
20260506115134 52 83 0.0 0.0 0.00 0.00 0.00 74 1014.3
20260506114631 52 82 0.0 0.0 0.00 0.00 0.00 74 1014.3
20260506114129 52 82 0.0 0.0 0.00 0.00 0.00 74 1014.2
20260506113628 52 83 0.0 0.0 0.00 0.00 0.00 75 1014.1
20260506113125 52 83 0.0 0.0 0.00 0.00 0.00 74 1014.0
20260506112621 52 82 0.0 0.0 0.00 0.00 0.00 74 1014.1
20260506112118 52 82 0.0 0.0 0.00 0.00 0.00 72 1014.2
20260506111616 53 82 0.0 0.0 0.00 0.00 0.00 70 1013.9
20260506111114 53 82 0.0 0.0 0.00 0.00 0.00 70 1014.1
20260506110611 53 82 0.0 0.0 0.00 0.00 0.00 69 1014.0
20260506110108 53 82 0.0 0.0 0.00 0.00 0.00 68 1014.1
20260506105604 53 82 0.0 0.0 0.00 0.00 0.00 67 1014.2
20260506105101 53 82 0.0 0.0 0.00 0.00 0.00 66 1013.8
20260506104600 53 84 0.9 1.7 0.00 0.00 0.00 67 1014.0